User: anonymous   Login
Location: Moscow
(55.7500°N, 37.5830°E)
Time: 02:36:06
(UTC+03:00)
Language:

N. Korean satellite - Orbit

View from above orbital plane
View from above orbital plane
View from above satellite
View from above satellite

Ground track
Ground track

The orbit data is extracted from the following two-line orbital elements,

1 39026U 12072A   21112.50425412  .00002562  00000-0  89381-4 0  9990
2 39026  97.2432 106.7472 0034565 221.5521 138.3092 15.29962271464472
Epoch (UTC): 22 April 2021 12:06:07
Eccentricity: 0.0034565
inclination: 97.2432°
perigee height: 452 km
apogee height: 499 km
right ascension of ascending node: 106.7472°
argument of perigee: 221.5521°
revolutions per day: 15.29962271
mean anomaly at epoch: 138.3092°
orbit number at epoch: 46447

The dashed part of the orbit path shows where the satellite is in the earth's shadow,  

DLR